TimeEDT,TemperatureF,Dew PointF,Humidity,Sea Level PressureIn,VisibilityMPH,Wind Direction,Wind SpeedMPH,Gust SpeedMPH,PrecipitationIn,Events,Conditions,WindDirDegrees,DateUTC
12:54 AM,69.1,61.0,75,29.93,10.0,Calm,Calm,-,N/A,,Partly Cloudy,0,2013-09-08 04:54:00
1:54 AM,69.1,62.1,78,29.91,10.0,Calm,Calm,-,0.00,,Overcast,0,2013-09-08 05:54:00
2:54 AM,70.0,62.1,76,29.91,10.0,West,6.9,-,N/A,,Overcast,260,2013-09-08 06:54:00
3:54 AM,70.0,62.1,76,29.89,10.0,West,4.6,-,N/A,,Overcast,270,2013-09-08 07:54:00
4:54 AM,69.1,61.0,75,29.89,10.0,West,6.9,-,N/A,,Overcast,270,2013-09-08 08:54:00
5:54 AM,69.1,60.1,73,29.88,10.0,West,5.8,-,0.00,,Mostly Cloudy,270,2013-09-08 09:54:00
6:54 AM,66.0,60.1,81,29.89,10.0,WSW,4.6,-,N/A,,Clear,250,2013-09-08 10:54:00
7:54 AM,69.1,61.0,75,29.89,10.0,WNW,6.9,-,N/A,,Clear,290,2013-09-08 11:54:00
8:54 AM,73.0,60.1,64,29.88,10.0,West,5.8,-,N/A,,Clear,260,2013-09-08 12:54:00
9:54 AM,77.0,61.0,58,29.89,10.0,West,12.7,-,N/A,,Clear,280,2013-09-08 13:54:00
10:54 AM,78.1,61.0,56,29.88,10.0,Variable,5.8,-,N/A,,Scattered Clouds,0,2013-09-08 14:54:00
11:54 AM,81.0,64.0,56,29.88,10.0,West,9.2,-,N/A,,Partly Cloudy,280,2013-09-08 15:54:00
12:54 PM,82.9,64.9,54,29.87,10.0,NNW,9.2,-,N/A,,Scattered Clouds,330,2013-09-08 16:54:00
1:54 PM,81.0,64.9,58,29.88,10.0,NNW,13.8,-,N/A,,Mostly Cloudy,330,2013-09-08 17:54:00
2:54 PM,81.0,63.0,54,29.88,10.0,NNW,12.7,-,N/A,,Scattered Clouds,340,2013-09-08 18:54:00
3:54 PM,82.9,62.1,49,29.88,10.0,North,11.5,18.4,N/A,,Scattered Clouds,360,2013-09-08 19:54:00
4:54 PM,82.9,60.1,46,29.89,10.0,North,11.5,21.9,N/A,,Partly Cloudy,350,2013-09-08 20:54:00
5:54 PM,81.0,57.9,45,29.92,10.0,North,15.0,21.9,N/A,,Partly Cloudy,350,2013-09-08 21:54:00
6:54 PM,77.0,55.0,47,29.94,10.0,North,13.8,19.6,N/A,,Clear,360,2013-09-08 22:54:00
7:54 PM,73.9,53.1,48,29.98,10.0,North,13.8,-,N/A,,Clear,10,2013-09-08 23:54:00
8:54 PM,71.1,46.0,41,30.02,10.0,North,12.7,-,N/A,,Clear,10,2013-09-09 00:54:00
9:54 PM,68.0,46.0,45,30.05,10.0,North,10.4,-,N/A,,Clear,10,2013-09-09 01:54:00
10:54 PM,63.0,46.9,56,30.08,10.0,NNE,6.9,-,N/A,,Clear,20,2013-09-09 02:54:00
11:54 PM,61.0,46.9,60,30.10,10.0,NNE,5.8,-,N/A,,Clear,20,2013-09-09 03:54:00